Location: Caltech
(34.1382°N, 118.1253°W)
Time: 12:09:49
(UTC-07:00)

Oscar 10/S400 - Visible Passes

Search period start: 26 March 2015 00:00
Search period end: 05 April 2015 00:00
Orbit: 3862 x 35585 km, 25.8° (Epoch: 26 March)

Date Brightness Start Highest point End Pass type
(mag) Time Alt. Az. Time Alt. Az. Time Alt. Az.
26 Mar ? 11:11:03 10° W 21:21:36 28° SSE 21:49:08 27° SE visible
27 Mar ? 10:26:11 10° W 10:50:39 46° SSW 21:08:45 20° SE visible
28 Mar ? 09:41:36 10° W 10:03:02 50° SSW 20:28:23 13° ESE visible
29 Mar ? 08:57:05 10° W 09:16:36 55° SSW 19:36:57 10° ESE visible
02 Apr ? 05:57:56 10° W 06:16:29 67° S 06:47:13 10° ESE visible
03 Apr ? 05:16:31 19° W 05:32:03 69° S 05:57:34 10° ESE visible
04 Apr ? 04:35:33 30° WSW 04:47:42 68° S 05:09:44 10° E visible
